Location: Lussas
(44.6119°N, 4.4726°E)
Time: 05:02:39
(UTC+00:00)

FALCON 9 DEB - Pass Details

Date: 26 November 2020
Orbit: 373 x 394 km, 53.0° (Epoch: 18 January)

Event Time Altitude Azimuth Distance (km) Brightness Sun altitude
Exits shadow 04:43:00 15° 170° (S) 1,185 5.5 -22.7°
Drops below altitude 10° 04:47:00 10° 84° (E) 1,439 6.8 -22.0°
Enters shadow 05:45:26 -65° 237° (WSW) 11,933 10.3 -11.9°
Maximum altitude 06:20:17 54° 331° (NNW) 486 3.1 -6.1°
